Wind_Speed
24 24 24 23 23 23 22 22 22 23 23 24 25 26 27 29 30 32 33 36 37 38 38 38 39 39 38 36 34 31 30 29 28 28 28 28 29 29 27 25 23 22 21
22 22 21 21 20 19 19 18 18 19 20 21 22 23 24 25 27 28 30 33 35 37 38 40 40 40 40 39 37 35 33 32 30 28 28 30 29 29 29 28 27 26 25
20 20 20 19 19 18 17 17 17 17 18 18 19 19 20 21 22 24 25 28 30 33 36 39 40 41 41 41 39 37 36 34 32 31 30 28 29 30 31 30 30 29 28
20 20 20 19 18 18 17 17 16 16 16 16 17 17 18 19 20 21 22 24 26 29 32 35 38 40 41 42 42 40 38 37 35 34 32 31 29 31 31 30 31 32 32
19 20 20 19 19 18 17 17 17 16 16 15 15 15 16 17 18 19 20 22 24 26 28 31 35 38 40 42 42 42 41 39 38 37 35 34 32 32 32 31 31 32 33
20 20 20 20 20 19 18 17 17 17 16 15 15 14 14 14 15 16 17 19 21 23 25 28 31 34 38 40 41 42 43 42 41 39 37 36 35 34 34 34 33 33 33
20 21 20 21 21 20 18 18 18 18 16 15 15 14 13 13 14 14 15 17 19 20 23 25 28 31 34 38 40 42 43 43 42 42 40 38 38 36 36 36 36 35 34
20 20 20 21 21 20 20 19 19 19 18 16 16 14 13 13 13 13 14 15 16 17 19 21 24 28 31 34 37 39 42 43 43 43 43 42 40 39 39 38 37 36 36
21 21 21 21 22 21 20 20 19 19 18 18 18 16 15 14 13 12 12 12 13 14 16 18 21 24 28 31 35 37 38 40 42 43 43 42 41 40 39 39 39 37 36
21 21 21 22 22 21 21 20 20 20 19 19 19 18 17 15 14 13 12 11 11 12 14 15 18 21 24 28 31 34 36 37 39 41 42 43 42 41 40 40 39 39 38
21 21 22 22 23 23 22 21 21 21 21 21 20 20 18 17 16 15 13 12 11 12 12 13 15 17 20 24 27 29 32 34 36 38 40 41 41 41 40 40 39 39 39
21 21 21 22 22 23 23 22 23 23 22 22 22 21 19 18 17 16 15 14 12 11 10 10 11 13 16 18 20 23 27 29 31 34 36 38 37 39 38 38 39 39 38
20 21 21 21 22 22 22 23 23 24 24 23 23 23 22 20 19 18 17 16 14 12 11 9 9 10 12 14 16 18 20 23 26 29 31 33 34 35 35 35 36 36 37
19 20 21 21 22 22 22 22 23 24 24 25 25 24 24 22 21 20 20 18 16 14 12 10 8 7 8 10 12 14 16 18 21 23 26 28 30 32 32 32 33 34 33
19 20 20 21 22 22 22 22 22 23 24 25 25 25 25 24 23 22 21 20 19 17 15 13 10 7 6 6 8 11 13 14 16 18 21 24 27 28 29 28 28 29 30
18 19 20 20 21 22 22 23 23 23 24 24 25 25 25 26 25 24 23 22 21 19 18 16 13 10 6 5 5 7 10 11 13 14 17 19 22 22 23 25 25 25 26
18 18 19 19 20 21 22 23 23 23 24 24 24 25 26 26 26 26 25 23 22 21 19 18 16 12 8 6 4 4 6 9 11 12 13 15 17 18 19 21 22 23 23
17 18 18 19 19 20 21 22 22 23 23 24 24 24 25 26 27 26 26 26 24 22 21 20 18 15 12 8 5 3 3 5 7 8 10 12 13 14 16 17 17 19 19
17 17 18 18 18 19 19 20 21 22 22 23 23 24 24 25 26 27 27 27 26 24 23 22 20 18 15 12 9 5 2 1 4 5 7 9 10 11 13 14 15 15 16
16 17 17 17 18 18 18 19 20 20 21 21 22 23 24 24 25 26 27 27 27 26 24 23 22 20 18 16 13 10 7 3 0 2 4 6 8 9 11 12 13 14 15
16 16 17 17 17 18 18 18 18 19 19 20 21 21 22 23 24 25 25 26 26 26 25 24 23 21 20 18 17 14 12 8 5 3 2 4 6 7 9 11 11 12 12
16 16 16 17 17 17 17 18 18 18 18 19 19 20 20 21 22 23 23 24 25 25 24 23 23 22 21 19 17 16 14 12 10 7 5 4 5 6 6 8 9 9 10
17 17 17 17 17 17 17 17 17 17 17 18 18 18 19 19 20 20 21 22 23 23 23 22 22 21 21 19 18 17 16 14 12 11 8 6 5 5 5 6 7 7 8
18 18 18 18 18 18 18 18 18 18 17 18 18 18 18 18 18 18 19 19 20 20 21 21 20 20 20 19 17 17 15 14 12 11 9 8 6 5 5 5 5 5 6
20 19 19 19 19 19 19 18 18 18 18 18 18 18 17 17 17 17 16 16 17 17 18 19 19 18 17 17 16 15 15 14 13 11 9 8 6 6 5 5 4 4 5
22 22 21 21 21 21 20 20 20 19 19 19 18 18 18 17 17 16 16 15 14 14 15 15 16 16 16 15 15 14 13 13 12 11 10 8 6 6 5 4 4 4 4
Wind_Direction
321 319 317 315 312 308 301 295 291 289 286 282 278 275 270 265 260 256 253 251 249 247 246 245 244 242 241 242 241 240 242 242 241 240 238 238 237 236 237 237 237 235 236
328 327 326 324 323 320 315 309 302 297 293 289 284 279 274 269 265 260 256 252 249 247 245 244 243 242 240 239 237 237 238 239 239 239 239 239 239 238 237 237 238 236 235
339 338 337 335 333 330 327 322 315 308 303 297 292 286 279 273 267 263 259 254 250 247 246 244 242 241 238 237 235 234 235 235 237 239 240 238 238 237 237 238 238 236 235
347 347 348 347 343 339 334 330 326 320 314 308 300 293 286 279 273 268 262 256 252 250 248 245 242 240 239 236 235 233 233 233 235 236 238 236 236 236 237 238 238 237 237
354 354 353 352 351 347 344 341 337 332 327 322 314 305 295 284 279 273 267 261 255 252 251 248 243 240 238 236 235 233 232 232 232 234 236 237 237 236 234 235 236 237 238
359 360 359 358 356 354 352 350 349 345 339 332 324 317 310 298 289 281 273 267 261 256 253 249 245 241 239 236 234 233 232 232 231 232 234 235 235 236 234 234 236 237 237
6 5 5 5 5 4 2 360 357 355 351 345 338 329 322 313 303 292 282 275 269 262 256 251 246 242 239 236 234 233 233 232 232 232 233 234 234 236 235 236 236 236 237
10 11 11 11 11 10 9 7 6 5 2 358 353 346 337 328 317 305 292 284 276 268 261 254 248 243 239 236 235 235 235 234 233 232 233 234 234 234 234 234 235 235 237
16 16 17 16 15 14 13 12 12 11 10 7 4 0 353 346 338 325 311 298 286 275 266 260 251 246 241 238 236 236 236 235 234 233 233 233 234 235 235 235 235 235 237
19 19 20 20 19 18 18 17 16 15 14 11 9 6 3 359 353 344 331 317 302 288 277 268 258 251 245 240 238 236 235 236 235 234 234 233 234 234 235 236 235 235 236
20 21 22 23 22 22 22 22 21 19 17 15 13 12 10 6 3 358 351 340 323 305 292 281 266 257 251 245 241 238 236 235 236 235 235 234 234 233 234 235 236 236 237
20 21 22 22 23 23 24 25 24 23 21 18 16 15 13 11 9 7 2 356 347 334 315 301 282 268 258 251 246 241 238 236 235 235 236 235 235 235 236 236 236 236 236
22 23 23 23 24 24 25 25 25 25 24 22 20 18 18 17 15 14 9 2 356 349 339 324 303 283 265 254 248 244 239 238 237 236 236 235 236 235 235 236 235 235 234
23 24 25 26 26 26 26 25 25 25 24 24 23 22 22 21 19 17 14 11 7 2 355 348 332 304 276 259 251 247 242 240 237 234 234 235 235 235 236 235 235 235 234
22 23 25 26 26 26 26 26 25 24 24 24 25 25 25 23 21 19 19 18 17 15 12 6 358 339 307 274 255 246 240 238 235 234 233 235 236 236 235 235 235 235 237
21 22 23 25 25 26 26 26 25 24 24 24 25 25 25 24 23 22 21 19 19 18 18 15 9 2 344 310 274 254 244 242 239 235 233 235 236 237 236 236 236 236 237
18 19 20 21 22 23 23 23 24 24 23 23 24 25 25 24 24 23 22 21 20 20 20 19 17 14 7 351 316 270 249 242 241 237 231 230 232 235 237 236 236 235 234
14 15 16 16 17 18 19 20 21 21 22 22 22 23 24 24 24 24 24 23 23 24 24 25 25 24 22 17 7 330 261 242 235 230 227 228 229 231 233 234 235 233 232
8 9 9 10 12 13 15 16 17 18 19 20 21 22 23 23 23 24 24 25 26 27 28 29 31 32 32 30 29 28 13 278 237 226 224 224 227 227 229 231 231 230 230
1 3 3 4 5 7 9 10 12 14 15 16 18 19 21 22 23 24 25 26 27 28 30 32 33 34 36 38 42 43 41 39 81 214 217 219 218 216 215 217 220 224 227
354 355 357 358 359 1 2 4 5 7 9 12 14 16 18 20 21 23 25 26 27 29 31 33 34 36 38 42 45 48 49 52 61 81 156 192 201 204 207 209 214 221 221
343 345 347 350 351 353 355 357 359 1 3 5 8 11 14 16 18 20 22 24 26 28 31 33 35 37 40 43 46 48 51 54 57 66 86 131 164 176 185 194 200 207 210
332 334 336 338 341 344 346 349 351 354 356 358 1 4 7 9 12 16 18 20 23 26 29 31 34 37 40 42 45 47 49 53 54 60 69 87 119 137 153 167 178 189 198
324 326 327 328 330 333 335 338 341 344 346 349 352 354 357 0 4 7 11 14 18 21 26 29 32 35 37 39 42 43 44 46 48 50 59 74 92 113 127 139 154 169 183
315 317 319 321 322 324 325 327 330 333 335 338 342 345 348 350 353 356 0 4 9 14 18 23 27 29 32 34 38 40 42 43 46 48 56 71 85 95 108 121 132 155 173
308 309 310 312 314 315 317 319 321 323 325 328 331 333 336 339 341 344 348 351 356 1 6 11 17 22 25 28 31 36 40 43 44 47 54 65 79 91 101 109 117 131 147
Height
5834 5829 5825 5821 5818 5814 5812 5809 5808 5806 5805 5804 5804 5803 5804 5804 5806 5807 5809 5810 5812 5815 5818 5821 5824 5828 5831 5835 5838 5841 5844 5846 5849 5852 5856 5859 5861 5865 5868 5870 5873 5876 5878
5830 5826 5821 5817 5814 5810 5807 5805 5803 5801 5799 5798 5797 5796 5796 5796 5797 5798 5799 5801 5803 5805 5808 5811 5814 5818 5822 5825 5829 5832 5836 5839 5842 5845 5848 5851 5855 5858 5861 5864 5867 5870 5873
5828 5824 5819 5815 5811 5807 5804 5801 5799 5796 5794 5792 5791 5790 5789 5789 5789 5790 5790 5792 5793 5795 5798 5801 5804 5807 5811 5815 5819 5823 5827 5831 5834 5838 5841 5844 5848 5851 5854 5858 5861 5864 5867
5827 5822 5818 5813 5809 5805 5801 5798 5795 5793 5790 5788 5786 5785 5784 5783 5782 5783 5783 5784 5785 5787 5789 5791 5794 5797 5801 5805 5809 5814 5818 5822 5826 5829 5833 5837 5841 5844 5848 5851 5854 5857 5860
5826 5821 5817 5812 5808 5803 5800 5796 5793 5790 5787 5785 5782 5781 5779 5778 5777 5777 5777 5777 5778 5780 5781 5782 5785 5787 5791 5795 5799 5804 5808 5813 5817 5821 5824 5828 5833 5836 5840 5843 5847 5850 5853
5825 5820 5816 5811 5807 5802 5798 5795 5792 5788 5785 5782 5779 5777 5775 5773 5772 5771 5771 5771 5771 5772 5773 5774 5776 5779 5782 5786 5790 5795 5799 5803 5808 5812 5816 5820 5824 5828 5832 5836 5839 5842 5845
5825 5820 5816 5811 5807 5802 5798 5795 5791 5787 5783 5780 5777 5775 5772 5770 5768 5767 5766 5765 5765 5766 5766 5767 5769 5770 5773 5777 5781 5785 5789 5794 5799 5803 5807 5811 5815 5819 5823 5827 5831 5834 5838
5826 5821 5817 5812 5808 5803 5799 5795 5791 5787 5783 5780 5776 5773 5770 5768 5765 5763 5762 5761 5760 5760 5760 5761 5762 5763 5766 5769 5772 5776 5780 5785 5789 5794 5798 5802 5806 5810 5814 5819 5822 5826 5830
5827 5823 5818 5814 5809 5805 5800 5796 5792 5788 5784 5780 5777 5773 5769 5766 5763 5761 5759 5757 5756 5756 5755 5755 5756 5757 5758 5761 5764 5767 5771 5775 5780 5785 5789 5793 5797 5801 5805 5809 5814 5818 5821
5829 5825 5820 5816 5811 5807 5802 5798 5794 5790 5786 5781 5777 5773 5769 5765 5762 5759 5756 5754 5753 5752 5751 5750 5750 5751 5752 5753 5756 5759 5763 5767 5771 5775 5779 5784 5788 5792 5796 5800 5804 5808 5813
5831 5827 5822 5818 5814 5809 5804 5800 5796 5791 5787 5783 5779 5774 5770 5766 5762 5759 5756 5753 5750 5748 5747 5746 5745 5745 5746 5747 5749 5752 5755 5758 5762 5766 5771 5775 5778 5783 5786 5791 5795 5799 5804
5833 5829 5825 5820 5816 5811 5807 5803 5798 5794 5789 5785 5780 5775 5771 5767 5763 5759 5755 5752 5749 5746 5744 5742 5741 5740 5740 5741 5743 5745 5748 5751 5754 5757 5761 5766 5770 5774 5778 5782 5787 5790 5794
5835 5831 5827 5823 5819 5814 5810 5805 5801 5797 5792 5787 5782 5777 5773 5768 5764 5760 5756 5752 5748 5745 5742 5740 5738 5737 5736 5737 5738 5740 5742 5744 5747 5750 5754 5758 5762 5766 5771 5775 5778 5782 5786
5838 5834 5830 5826 5821 5817 5813 5808 5804 5800 5795 5790 5785 5780 5775 5770 5765 5761 5757 5752 5748 5744 5741 5738 5736 5734 5733 5734 5734 5736 5737 5739 5741 5744 5747 5751 5755 5759 5763 5767 5771 5774 5777
5840 5836 5832 5828 5824 5820 5815 5811 5807 5802 5798 5793 5788 5783 5778 5773 5768 5763 5758 5753 5749 5744 5741 5737 5734 5732 5731 5731 5732 5733 5734 5735 5737 5739 5742 5745 5749 5752 5756 5760 5763 5766 5770
5842 5838 5835 5831 5827 5823 5818 5814 5809 5805 5800 5796 5791 5786 5781 5776 5770 5765 5760 5755 5750 5746 5742 5738 5734 5731 5730 5729 5729 5730 5731 5732 5734 5735 5738 5740 5743 5746 5750 5753 5756 5760 5763
5844 5840 5837 5833 5829 5825 5821 5816 5812 5808 5803 5799 5794 5789 5784 5778 5773 5768 5763 5757 5752 5748 5743 5739 5735 5732 5729 5728 5727 5728 5728 5729 5731 5732 5734 5736 5739 5742 5745 5748 5751 5754 5757
5846 5842 5838 5835 5831 5827 5823 5819 5815 5810 5806 5801 5797 5792 5787 5782 5776 5771 5766 5760 5755 5750 5745 5741 5736 5733 5730 5728 5727 5726 5727 5727 5729 5730 5731 5734 5736 5738 5741 5744 5747 5750 5753
5847 5843 5840 5836 5832 5829 5825 5821 5817 5813 5808 5804 5799 5795 5790 5785 5780 5774 5769 5764 5758 5753 5748 5744 5739 5735 5732 5729 5727 5726 5726 5726 5727 5728 5729 5731 5733 5736 5738 5741 5743 5746 5749
5847 5844 5841 5837 5834 5830 5826 5822 5819 5815 5811 5806 5802 5797 5793 5788 5783 5778 5773 5768 5762 5757 5752 5748 5743 5739 5735 5732 5729 5728 5727 5727 5727 5727 5728 5729 5731 5733 5735 5738 5741 5743 5746
5847 5844 5841 5838 5834 5831 5827 5823 5820 5816 5812 5808 5804 5800 5795 5791 5786 5782 5777 5772 5767 5762 5757 5752 5747 5743 5739 5736 5733 5731 5730 5729 5728 5728 5728 5729 5731 5732 5734 5736 5739 5741 5743
5847 5844 5841 5838 5834 5831 5828 5824 5821 5817 5813 5810 5806 5802 5798 5794 5789 5785 5780 5776 5771 5766 5761 5757 5753 5748 5745 5741 5739 5736 5734 5732 5731 5730 5730 5730 5731 5733 5734 5736 5737 5739 5741
5845 5843 5840 5837 5834 5831 5828 5824 5821 5818 5814 5811 5807 5803 5799 5796 5792 5788 5784 5779 5775 5771 5766 5762 5758 5754 5750 5747 5744 5741 5738 5737 5735 5734 5733 5732 5733 5733 5734 5735 5737 5739 5741
5843 5841 5838 5835 5833 5830 5827 5824 5821 5818 5814 5811 5808 5804 5801 5797 5794 5790 5786 5782 5778 5775 5770 5766 5762 5758 5755 5752 5748 5746 5743 5741 5739 5737 5736 5735 5735 5735 5736 5737 5738 5739 5741
5840 5838 5836 5833 5830 5828 5825 5822 5819 5817 5814 5811 5808 5804 5801 5798 5794 5791 5788 5785 5781 5778 5774 5770 5766 5763 5759 5756 5753 5750 5747 5745 5743 5741 5740 5738 5738 5738 5738 5739 5739 5740 5741
5836 5834 5832 5830 5827 5825 5822 5820 5817 5815 5812 5809 5807 5804 5801 5798 5795 5792 5789 5786 5783 5780 5776 5773 5770 5766 5763 5760 5757 5754 5751 5749 5746 5744 5743 5742 5741 5741 5741 5741 5741 5741 5742